Flag for Canada Weather past 2 weeks in Haldimand, Ontario, Canada

Now
52 °F

Passing clouds.


Feels Like: 51 °F
Forecast: 47 / 64 °F
Wind: 3 mph from West

Location: Hamilton Airport

Current Time: Sep 15, 2014 at 12:47:08 AM

Latest Report: Sep 15, 2014 at 12:00 AM


Visibility: 15 mi

Pressure: 30.22 "Hg

Humidity: 88%

Dew point: 48 °F

Location of HaldimandLocation

Historic Weather in Haldimand — Graph

°F

Haldimand temperature yesterday

Maximum temperature yesterday: 59 °F (at 2:00 PM)
Minimum temperature yesterday: 41 °F (at 6:00 AM)
Average temperature yesterday: 51 °F

Past Weeks' High & Low Weather Summary

 TemperatureHumidityPressure
High84 °F (Sep 5, 3:00 PM)100% (Aug 31, 10:00 PM)30.36 "Hg (Aug 31, 10:00 PM)
Low41 °F (Sep 14, 6:00 AM)46% (Sep 7, 3:00 PM)29.55 "Hg (Sep 11, 4:00 AM)
Average64 °F82%30.03 "Hg
* Reported Aug 30 11:00 PM — Sep 14 11:00 PM, Haldimand, Weather by CustomWeather, © 2014

Note: Actual official high and low records may vary slightly from our data, if they occured in-between our weather recording intervals... More about our weather records

Advertising

Haldimand weather history for previous 24 hours

 ConditionsComfort  
Time TempWeatherWind HumidityBarometerVisibility
11:00 PM
Sep 14
52 °FPassing clouds.5 mph82%30.23 "Hg15 mi
10:00 PM52 °FPassing clouds.5 mph82%30.23 "Hg15 mi
9:00 PM52 °FPassing clouds.3 mph82%30.22 "Hg15 mi
8:00 PM55 °FPartly sunny.5 mph67%30.23 "Hg15 mi
7:00 PM55 °FPartly sunny.6 mph67%30.23 "Hg15 mi
6:00 PM59 °FPartly sunny.2 mph51%30.23 "Hg15 mi
5:00 PM59 °FPartly sunny.3 mph51%30.24 "Hg15 mi
4:00 PM59 °FBroken clouds.6 mph51%30.25 "Hg15 mi
3:00 PM59 °FPartly sunny.6 mph51%30.27 "Hg15 mi
2:00 PM59 °FPartly sunny.5 mph51%30.30 "Hg15 mi
1:00 PM57 °FPartly sunny.5 mph55%30.31 "Hg15 mi
12:00 PM55 °FPartly sunny.3 mph59%30.32 "Hg15 mi
11:00 AM54 °FPartly sunny.2 mph67%30.34 "Hg15 mi
10:00 AM54 °FScattered clouds.2 mph72%30.35 "Hg15 mi
9:00 AM50 °FPassing clouds.No wind82%30.35 "Hg15 mi
8:00 AM43 °FPassing clouds.No wind100%30.36 "Hg15 mi
7:00 AM41 °FPassing clouds.2 mph93%30.35 "Hg15 mi
6:00 AM41 °FPassing clouds.5 mph100%30.33 "Hg15 mi
5:00 AM43 °FClear.5 mph100%30.34 "Hg15 mi
4:00 AM45 °FPassing clouds.7 mph93%30.34 "Hg15 mi
3:00 AM43 °FPassing clouds.5 mph93%30.33 "Hg15 mi
2:00 AM45 °FPassing clouds.2 mph100%30.33 "Hg15 mi
1:00 AM46 °FPassing clouds.3 mph93%30.32 "Hg15 mi
12:00 AM46 °FPassing clouds.5 mph93%30.32 "Hg15 mi
Weather by CustomWeather, © 2014

See weather overviewHow to use our weather pages